Regional Weather Roundup
Issued by NWS Goodland, KS

Home | Current Version | Previous Version | Graphics & Text | Print | Product List | Glossary On
Versions: 1 2 3 4 5 6 7 8 9 10 11 12 13 14 15 16 17 18 19 20 21 22 23 24 25 26 27 28 29 30 31 32 33 34 35 36 37 38 39 40 41 42 43 44 45 46 47 48 49 50
000
ASUS43 KGLD 210359
RWRGLD

GOODLAND FORECAST AREA HOURLY WEATHER ROUNDUP
NATIONAL WEATHER SERVICE GOODLAND KS
1000 PM MDT SUN AUG 20 2017

...OFFICIAL OBSERVATIONS...

CITY           SKY/WX    TMP DP  RH WIND       PRES   REMARKS
GOODLAND KS    CLEAR     72  64  76 S9        30.02R
HILL CITY KS   CLOUDY    82  64  54 S8        29.96R
IMPERIAL NEB   PTCLDY    71  66  84 E5        30.00R
MCCOOK NEB     CLOUDY    76  72  87 NE6       29.96R
AKRON CO       CLOUDY    71  62  73 E8        30.08R
BURLINGTON CO  PTCLDY    73  63  70 S10       30.05R
LIMON CO       CLOUDY    68  56  65 CALM      30.13R
$$

...UNOFFICIAL OBSERVATIONS...

CITY           SKY/WX    TMP DP  RH WIND       PRES   REMARKS
LENORA KS        N/A     80  32  17 CALM        N/A
NORTON KS      CLEAR     79  61  53 SW7       29.94R
TRENTON NEB      N/A     76  32  20 E5          N/A
KIT CARSON CO    N/A     75  60  60 MISG        N/A
YUMA CO        FAIR      68  57  68 NE3       30.04S
$$




USA.gov is the U.S. government's official web portal to all federal, state and local government web resources and services.